Location: Newark
(42.7133°N, 87.7910°W)
Time: 10:46:45
(UTC+00:00)

Vanguard 1 - Pass Details

Date: 22 September 2019
Orbit: 653 x 3830 km, 34.2° (Epoch: 17 October)

Event Time Altitude Azimuth Distance (km) Brightness Sun altitude
Rises 09:41:17 0° 258° (WSW) 7,936 - -21.8°
Reaches altitude 10° 09:46:47 10° 256° (WSW) 6,934 - -20.8°
Exits shadow 09:53:11 24° 253° (WSW) 5,738 13.3 -19.7°
Maximum altitude 10:09:21 66° 182° (S) 3,352 12.6 -16.9°
Drops below altitude 10° 10:23:47 10° 104° (ESE) 4,700 14.5 -14.4°
Sets 10:26:42 0° 102° (ESE) 5,366 15.1 -13.8°
